Torna al catalogo

FENGYUN 1C DEB

AttivoSSO
NORAD 30640·DEBRIS·🇨🇳 China

Lanciato May 10, 1999 da Taiyuan Satellite Launch Center

Loading…

Prossimi Passaggi (prossime 24 ore)

TLE

AggiornatoSource: Space-Track

Epoca: Sep 14, 2026, 11:57 UTC

1 30640U 99025ANX 26257.49842571  .00001282  00000-0  65428-3 0  9991
2 30640  99.0413 337.6950 0079087  40.8455  80.1219 14.15911836  3453

Traccia FENGYUN 1C DEB in tempo reale con AllMySat

Download on the App Store